[[{"header":{"parameterUnit":"m.s-1","parameterCategory":1,"la1":30.2991,"la2":30.254,"lo1":-89.0895,"lo2":-89.0444,"dy":0.0017,"dx":0.0017,"nx":28,"ny":28,"refTime":"2025-07-28T21:00:00:Z","depth":0,"parameterNumber":2,"parameterNumberName":"U-component_of_WINDS"},"data":[0,0,0,0,0,0,0,0,0,0,0,0,0,0,0,0,0,0,0,0,0,0,0,0,0,0,0,0,0,0,0,0,0,0,0,0,0,0,0,0,0,0,0,0,0,0,0,0,0,0,0,0,0,0,0,0,0,0,0.8645,0.8645,0,0.8605,0.8604,0.8604,0.8531,0.853,0.8528,0.8527,0.8487,0.8487,0.8488,0,0,0,0,0,0,0,0,0,0,0,0,0,0.8661,0.8661,0.8645,0.8645,0.8644,0.8605,0.8604,0.8604,0.8531,0.8529,0.8528,0.8526,0.8487,0.8487,0.8488,0,0,0,0,0,0,0,0,0,0,0,0,0,0.8641,0.8661,0.8645,0.8603,0.8599,0.8605,0.8604,0.8604,0.8532,0.8529,0.8527,0.8525,0.8487,0.8487,0.8488,0.8532,0,0,0.8489,0.8489,0,0,0,0,0,0,0,0,0.8642,0.864,0.861,0.8606,0.8601,0.8571,0.8595,0.858,0.8532,0.8557,0.8527,0.8524,0.8517,0.8515,0.8512,0.853,0.8529,0.8489,0.8489,0.8489,0.8489,0,0,0,0,0,0,0,0.8643,0.8641,0.8629,0.861,0.8604,0.8587,0.8582,0.8592,0.8549,0.8555,0.8549,0.8546,0.8514,0.8512,0.851,0.8528,0.8489,0.8489,0.849,0.849,0.8581,0.8583,0,0,0,0,0,0,0.8651,0.8643,0.863,0.8628,0.8617,0.8588,0.8582,0.8583,0.8549,0.8542,0.8547,0.8542,0.8512,0.851,0.8509,0.8559,0.8489,0.849,0.849,0.8579,0.8582,0.8584,0,0,0,0,0,0,0.8651,0.865,0.8632,0.8634,0.863,0.859,0.8591,0.8583,0.858,0.8543,0.8536,0.8553,0.851,0.8508,0.8527,0.8557,0.849,0.849,0.8577,0.858,0.8583,0.866,0,0,0,0,0,0,0.8652,0.8651,0.8667,0.8635,0.8631,0.8651,0.8593,0.8584,0.8581,0.8574,0.8546,0.854,0.8508,0.8527,0.8527,0.8556,0.8491,0.8574,0.8578,0.8582,0.8655,0.8666,0.8675,0,0,0,0,0,0.8653,0.8691,0.8668,0.8667,0.865,0.8653,0.865,0.8613,0.8584,0.86,0.8576,0.854,0.8553,0.8529,0.8529,0.8559,0.8572,0.8577,0.8582,0.865,0.8664,0.8675,0,0,0,0,0,0,0.8728,0.8686,0.866,0.8689,0.8675,0.8641,0.866,0.8628,0.8623,0.8617,0.8571,0.8566,0.8591,0.8576,0.855,0.86,0.8557,0.8562,0.8609,0.8621,0.8631,0.8635,0.8491,0,0,0,0,0,0.8748,0.8753,0.8716,0.8745,0.8739,0.8701,0.8701,0.8673,0.8657,0.8651,0.8629,0.8615,0.8616,0.8617,0.8616,0.8652,0.8645,0.8672,0.8682,0.869,0.8696,0.8715,0.8726,0.8601,0.8601,0.86,0,0,0.8789,0.8766,0.8773,0.8759,0.8745,0.8753,0.8696,0.8706,0.8712,0.8653,0.8669,0.8652,0.8634,0.8662,0.8673,0.865,0.8729,0.8697,0.8704,0.8705,0.8721,0.8733,0.8744,0.8604,0.8603,0.8603,0,0,0.8868,0.8851,0.8874,0.8861,0.884,0.8814,0.882,0.879,0.8776,0.8792,0.8748,0.8753,0.8755,0.8744,0.8739,0.8813,0.8781,0.8814,0.8868,0.8886,0.8896,0.8905,0.8933,0.8943,0.8819,0.882,0.882,0,0.8923,0.8931,0.8889,0.8902,0.8898,0.8844,0.8867,0.8856,0.8836,0.8835,0.881,0.8811,0.8795,0.882,0.8838,0.8835,0.884,0.8818,0.8898,0.8906,0.8914,0.894,0.895,0.8824,0.8823,0.8823,0.8822,0,0.8999,0.9006,0.9027,0.9009,0.9006,0.9024,0.8986,0.8988,0.8961,0.8938,0.8955,0.8933,0.8927,0.893,0.8904,0.8951,0.8938,0.8906,0.8862,0.8931,0.8954,0.8964,0.883,0.8828,0.8827,0.8826,0,0,0.9127,0.9084,0.9093,0.9084,0.9057,0.9061,0.9077,0.907,0.9074,0.9061,0.9074,0.9077,0.9047,0.9041,0.9012,0.9028,0.909,0.8994,0.8993,0.9014,0.9143,0.9169,0.9181,0.9067,0.9069,0.9071,0.9145,0,0.9201,0.9225,0.9187,0.922,0.9226,0.9175,0.9188,0.9173,0.9152,0.9155,0.9131,0.9134,0.9094,0.909,0.9103,0.908,0.9116,0.9074,0.908,0.9081,0.9088,0.9193,0.922,0.9291,0.9154,0.9155,0.9156,0,0.9292,0.9284,0.9317,0.9288,0.9289,0.9302,0.9293,0.9295,0.9277,0.9261,0.9254,0.922,0.9233,0.919,0.9208,0.918,0.918,0.9169,0.9171,0.9172,0.9124,0.9198,0.9313,0.9324,0.917,0.9169,0.9168,0,0.9383,0.938,0.94,0.9394,0.936,0.937,0.9357,0.9336,0.9335,0.9327,0.9325,0.9319,0.9316,0.9312,0.9278,0.9249,0.9301,0.9254,0.9289,0.929,0.9304,0.9304,0.9422,0.9301,0.9301,0.9301,0.93,0,0.9471,0.9494,0.944,0.9453,0.9477,0.9433,0.9459,0.944,0.9422,0.9431,0.9385,0.9394,0.9347,0.935,0.9323,0.9343,0.9342,0.933,0.9323,0.9335,0.9337,0.9336,0.933,0.9303,0.9303,0.9302,0.9302,0,0.9578,0.9543,0.9561,0.9527,0.9519,0.9539,0.951,0.952,0.9495,0.9507,0.9507,0.9468,0.947,0.9435,0.943,0.9412,0.9445,0.9428,0.9451,0.9446,0.9484,0.9481,0.9607,0.9622,0.949,0.9491,0.9492,0,0.9638,0.9654,0.9621,0.9623,0.9612,0.9616,0.9614,0.9571,0.9571,0.9552,0.9565,0.9563,0.9559,0.9565,0.9537,0.9533,0.9517,0.9561,0.9516,0.9529,0.952,0.952,0.9522,0.9572,0.9573,0.9575,0.9576,0,0.9748,0.9729,0.9728,0.972,0.9719,0.9711,0.9701,0.9705,0.9659,0.9661,0.9662,0.9659,0.9654,0.9653,0.9644,0.963,0.9596,0.959,0.9598,0.9612,0.9625,0.962,0.9479,0.9588,0.9586,0.9586,0.9585,0.9584,0.9833,0.9846,0.9825,0.9825,0.9812,0.9803,0.9812,0.9788,0.9788,0.978,0.9755,0.9761,0.9742,0.9726,0.9716,0.972,0.9698,0.971,0.9713,0.9717,0.9725,0.9623,0.9718,0.9717,0.9717,0.9717,0.9716,0,0.9942,0.9926,0.9926,0.9913,0.9913,0.9879,0.9865,0.9868,0.9874,0.9859,0.9856,0.9858,0.9857,0.9829,0.9824,0.9834,0.9818,0.9834,0.9834,0.9832,0.9743,0.9738,0.9847,0.9847,0.9847,0.9847,0.9847,0.9847,0.9999,1.0019,0.9998,1.0011,0.9994,0.9999,0.9995,0.9986,0.9975,0.9979,0.9977,0.9958,0.9938,0.9932,0.993,0.9921,0.9923,0.9945,0.9932,0.985,0.9838,0.9826,0.982,0.9945,0.9945,1.0019,1.002,1.0021]},{"header":{"parameterUnit":"m.s-1","parameterCategory":1,"la1":30.2991,"la2":30.254,"lo1":-89.0895,"lo2":-89.0444,"dy":0.0017,"dx":0.0017,"nx":28,"ny":28,"refTime":"2025-07-28T21:00:00:Z","depth":0,"parameterNumber":3,"parameterNumberName":"V-component_of_WINDS"},"data":[0,0,0,0,0,0,0,0,0,0,0,0,0,0,0,0,0,0,0,0,0,0,0,0,0,0,0,0,0,0,0,0,0,0,0,0,0,0,0,0,0,0,0,0,0,0,0,0,0,0,0,0,0,0,0,0,0,0,1.3169,1.3169,0,1.3171,1.3171,1.3171,1.3184,1.3185,1.3185,1.3185,1.3188,1.3188,1.3188,0,0,0,0,0,0,0,0,0,0,0,0,0,1.3176,1.3176,1.3169,1.3169,1.3169,1.3171,1.3171,1.3171,1.3184,1.3185,1.3185,1.3186,1.3188,1.3188,1.3188,0,0,0,0,0,0,0,0,0,0,0,0,0,1.3175,1.3176,1.3169,1.3176,1.3176,1.3171,1.3171,1.3171,1.3184,1.3185,1.3185,1.3186,1.3188,1.3188,1.3188,1.3175,0,0,1.3186,1.3186,0,0,0,0,0,0,0,0,1.3175,1.3175,1.3175,1.3175,1.3176,1.3178,1.3174,1.3172,1.3184,1.3181,1.3185,1.3186,1.3184,1.3184,1.3184,1.3176,1.3176,1.3186,1.3186,1.3186,1.3186,0,0,0,0,0,0,0,1.3175,1.3175,1.3169,1.3175,1.3175,1.3179,1.3179,1.3174,1.318,1.3182,1.3183,1.3183,1.3185,1.3184,1.3184,1.3176,1.3186,1.3186,1.3186,1.3186,1.3157,1.3157,0,0,0,0,0,0,1.3174,1.3175,1.3169,1.3169,1.3177,1.3178,1.3179,1.3177,1.318,1.3181,1.3182,1.3183,1.3184,1.3184,1.3184,1.317,1.3186,1.3186,1.3185,1.3158,1.3157,1.3157,0,0,0,0,0,0,1.3174,1.3173,1.3169,1.3172,1.3172,1.3177,1.3175,1.3176,1.3176,1.3181,1.3182,1.318,1.3185,1.3184,1.3177,1.317,1.3186,1.3185,1.3159,1.3158,1.3157,1.3142,0,0,0,0,0,0,1.3174,1.3173,1.3169,1.3172,1.3172,1.3163,1.3175,1.3176,1.3175,1.3176,1.3179,1.318,1.3185,1.3178,1.3177,1.317,1.3185,1.3159,1.3158,1.3157,1.3143,1.3141,1.3139,0,0,0,0,0,1.3175,1.3165,1.3169,1.3168,1.3166,1.3162,1.3162,1.3168,1.3174,1.317,1.3173,1.318,1.3171,1.3177,1.3176,1.3169,1.316,1.3159,1.3157,1.3144,1.3141,1.3139,0,0,0,0,0,0,1.3161,1.3165,1.317,1.3161,1.3161,1.3165,1.3159,1.3165,1.3163,1.3165,1.3172,1.3173,1.3164,1.3166,1.3173,1.3157,1.3167,1.3165,1.3157,1.3154,1.3152,1.3152,1.3185,0,0,0,0,0,1.3157,1.3153,1.3157,1.3149,1.3149,1.3154,1.3152,1.3157,1.3157,1.3158,1.316,1.3161,1.3158,1.3156,1.3154,1.3143,1.3144,1.3138,1.3136,1.3134,1.3133,1.3127,1.3125,1.3153,1.3153,1.3153,0,0,1.3149,1.3151,1.3148,1.3146,1.3147,1.3143,1.3154,1.3149,1.3146,1.3157,1.3151,1.3152,1.3153,1.3144,1.314,1.3145,1.3125,1.3132,1.3131,1.3131,1.3126,1.3123,1.3121,1.3152,1.3152,1.3152,0,0,1.3132,1.3133,1.3126,1.3126,1.3127,1.313,1.3128,1.3131,1.3133,1.3126,1.3134,1.313,1.3125,1.3126,1.3125,1.3107,1.3114,1.3106,1.3095,1.309,1.3087,1.3085,1.3079,1.3077,1.3105,1.3105,1.3105,0,1.3122,1.3116,1.3122,1.3116,1.3115,1.3124,1.3117,1.3117,1.3117,1.3116,1.3122,1.3115,1.3117,1.3108,1.3103,1.3103,1.3101,1.3106,1.3087,1.3085,1.3084,1.3078,1.3076,1.3104,1.3104,1.3104,1.3104,0,1.3103,1.3099,1.3093,1.3093,1.3091,1.3085,1.309,1.3087,1.3092,1.3094,1.3087,1.3089,1.3087,1.3085,1.3089,1.3077,1.308,1.3086,1.3096,1.308,1.3075,1.3073,1.3103,1.3103,1.3103,1.3104,0,0,1.3079,1.3081,1.3079,1.3079,1.308,1.3077,1.3071,1.3069,1.3066,1.3066,1.3061,1.3056,1.3062,1.3061,1.3065,1.3061,1.3046,1.3067,1.3067,1.3064,1.3033,1.3029,1.3026,1.305,1.305,1.305,1.3033,0,1.3063,1.3053,1.3058,1.3048,1.3044,1.3051,1.3046,1.3046,1.3048,1.3045,1.3048,1.3044,1.3052,1.3051,1.3047,1.3049,1.304,1.305,1.3046,1.3046,1.3047,1.3023,1.3019,1.3004,1.3031,1.3031,1.303,0,1.3044,1.3042,1.3031,1.3032,1.3031,1.3026,1.3024,1.3021,1.3021,1.3023,1.3022,1.3027,1.3021,1.303,1.3022,1.3029,1.3027,1.3028,1.3027,1.3028,1.3038,1.3024,1.2999,1.2997,1.3027,1.3027,1.3028,0,1.3028,1.3022,1.3015,1.3015,1.3016,1.3012,1.3013,1.3013,1.3011,1.301,1.3009,1.3006,1.3005,1.3003,1.3008,1.3013,1.2999,1.3008,1.3001,1.3001,1.2998,1.2998,1.2973,1.2996,1.2996,1.2996,1.2996,0,1.301,1.3003,1.3008,1.3004,1.2996,1.3001,1.2993,1.2994,1.2995,1.2991,1.2997,1.2993,1.2999,1.2995,1.2998,1.2991,1.2991,1.2992,1.2993,1.2992,1.2992,1.2992,1.2993,1.2995,1.2996,1.2996,1.2996,0,1.2991,1.2994,1.2987,1.2988,1.2988,1.2983,1.2984,1.298,1.2982,1.2977,1.2976,1.2979,1.2975,1.2979,1.2976,1.2978,1.2969,1.2971,1.2969,1.297,1.2962,1.2963,1.2936,1.2933,1.2957,1.2957,1.2957,0,1.298,1.2975,1.2975,1.2973,1.2973,1.2969,1.2967,1.2971,1.2969,1.2968,1.2964,1.2961,1.2959,1.2952,1.2954,1.2952,1.2954,1.2945,1.2954,1.2953,1.2955,1.2955,1.2955,1.2944,1.2943,1.2943,1.2943,0,1.296,1.2961,1.2958,1.2956,1.2953,1.2951,1.295,1.2947,1.2952,1.2949,1.2945,1.2943,1.2939,1.2936,1.2934,1.2934,1.2939,1.294,1.2938,1.2937,1.2936,1.2937,1.2964,1.2941,1.2941,1.2941,1.2941,1.2941,1.2945,1.2941,1.294,1.2937,1.2936,1.2934,1.293,1.2932,1.2928,1.2925,1.2928,1.2923,1.2923,1.292,1.292,1.2916,1.292,1.2918,1.2917,1.2916,1.2916,1.2936,1.2916,1.2916,1.2916,1.2916,1.2916,0,1.2926,1.2926,1.2922,1.292,1.2916,1.2921,1.2919,1.2917,1.2912,1.2911,1.2908,1.2904,1.29,1.2902,1.2899,1.2896,1.2898,1.2895,1.2896,1.2896,1.2912,1.2914,1.2893,1.2893,1.2893,1.2893,1.2893,1.2893,1.2916,1.2908,1.291,1.2902,1.2902,1.2897,1.2896,1.2894,1.2893,1.2888,1.2885,1.2886,1.2886,1.2883,1.288,1.288,1.2879,1.2875,1.2876,1.2892,1.2894,1.2897,1.2899,1.2875,1.2875,1.286,1.286,1.286]}]]